This demonstration page uses our WeatherBlox Daily Observations layout. Learn more.

Left ArrowRight Arrow

Hourly Observations for October 23, 2015

Temp ( °F °C ) Dew Point ( °F °C ) Humidity (%) Winds ( mph kmh ) Pressure ( in mb ) Visibility ( mi km ) Precip ( " mm )
12:51 am 00:51 Clear 52 11.1 49 9.4 89 89 Calm 29.97 1015 10 16 0.00 0.00
1:51 am 01:51 Clear 51 10.6 48 8.9 89 89 Calm 29.97 1015 10 16 0.00 0.00
2:51 am 02:51 Clear 50 10 47 8.3 89 89 Calm 29.97 1015 10 16 0.00 0.00
3:51 am 03:51 Clear 50 10 47 8.3 89 89 Calm 29.97 1015 10 16 0.00 0.00
4:51 am 04:51 Clear 48 8.9 46 7.8 93 93 Calm 29.91 1013 10 16 0.00 0.00
5:51 am 05:51 Clear 48 8.9 46 7.8 93 93 NNE 3 6 29.93 1014 10 16 0.00 0.00
6:51 am 06:51 Sunny 47 8.3 45 7.2 93 93 Calm 29.95 1014 10 16 0.00 0.00
7:51 am 07:51 Sunny 54 12.2 49 9.4 83 83 Calm 29.96 1015 10 16 0.00 0.00
8:51 am 08:51 Sunny 59 15 48 8.9 67 67 VRB 3 6 29.97 1015 10 16 0.00 0.00
9:51 am 09:51 Sunny 62 16.7 48 8.9 60 60 SW 5 7 29.96 1014 10 16 0.00 0.00
10:51 am 10:51 Sunny 66 18.9 47 8.3 50 50 VRB 3 6 29.94 1014 10 16 0.00 0.00
11:51 am 11:51 Sunny 70 21.1 46 7.8 42 42 VRB 3 6 29.91 1013 10 16 0.00 0.00
12:51 pm 12:51 Sunny 73 22.8 43 6.1 34 34 Calm 29.87 1012 10 16 0.00 0.00
1:51 pm 13:51 Sunny 74 23.3 42 5.6 32 32 Calm 29.84 1011 10 16 0.00 0.00
2:51 pm 14:51 Sunny 74 23.3 42 5.6 32 32 WSW 5 7 29.83 1010 10 16 0.00 0.00
3:51 pm 15:51 Sunny 75 23.9 41 5 29 29 WSW 3 6 29.82 1010 10 16 0.00 0.00
4:51 pm 16:51 Sunny 73 22.8 41 5 32 32 WSW 6 9 29.83 1010 10 16 0.00 0.00
5:51 pm 17:51 Clear 69 20.6 44 6.7 41 41 WNW 6 9 29.85 1011 10 16 0.00 0.00
6:51 pm 18:51 Clear 63 17.2 47 8.3 56 56 NNW 7 11 29.89 1012 10 16 0.00 0.00
7:51 pm 19:51 Clear 63 17.2 48 8.9 58 58 WNW 8 13 29.90 1012 10 16 0.00 0.00
8:51 pm 20:51 Clear 63 17.2 47 8.3 56 56 NNW 3 6 29.90 1013 10 16 0.00 0.00
9:51 pm 21:51 Clear 61 16.1 47 8.3 60 60 E 5 7 29.90 1013 10 16 0.00 0.00
10:51 pm 22:51 Clear 58 14.4 48 8.9 70 70 SSE 5 7 29.92 1013 10 16 0.00 0.00
11:51 pm 23:51 Clear 55 12.8 48 8.9 77 77 Calm 29.91 1013 10 16 0.00 0.00

Powered by AerisWeather